M I D A S
Marine Information and Data Acquisition System
Tripno 2024 of the Zeeleeuw from 2010-11-10 07:51:26 to 2010-11-10 16:08:12
Back to CruiseResearch ActivitiesStationsMapUnderway DataData graphs

EquipmentUnitsComment
TimeDGPSUTC
LatitudeDGPSDM.mWGS84
LongitudeDGPSDM.mWGS84
TemperatureSBE03/SBE38deg celciusITS90
ConductivitySBE21S/mITS90
SalinitySBE21 Practical Salinity Units
ChlorophylAChelsea fluorimeterg/lCalibrated in Aceton
Missing or incorrect values are displayed as -999
Sea surface data collected by the RV Zeeleeuw from 2010-11-10 07:48:18 to 2010-11-10 16:16:22
Time Latitude Longitude Temperature Conductivity Salinity ChlorophylA
2010-11-10 07:49:26 51°13.679 2°55.871 17.9443 0.030316 0.174874 -0.443383
2010-11-10 07:50:26 51°13.702 2°55.769 17.9584 0.030316 0.174883 -0.443383
2010-11-10 07:51:26 51°13.718 2°55.732 17.8521 0.030316 0.174904 -0.408559
2010-11-10 07:52:26 51°13.797 2°55.653 17.9028 0.030316 0.174886 -0.443383
2010-11-10 07:53:26 51°13.901 2°55.634 17.8568 0.030316 0.174892 -0.443383
2010-11-10 07:54:26 51°13.946 2°55.667 17.8823 0.030316 0.174886 -0.408559
2010-11-10 07:55:26 51°13.949 2°55.622 17.6844 0.030316 0.174895 -0.408559
2010-11-10 07:56:25 51°14.022 2°55.538 17.7356 0.030316 0.17488 -0.408559
2010-11-10 07:57:26 51°14.155 2°55.413 17.7447 0.030316 0.174883 -0.443383
2010-11-10 07:58:26 51°14.296 2°55.252 17.5157 0.030316 0.174874 -0.408559
2010-11-10 07:59:24 51°14.438 2°55.089 17.478 0.03042 0.175485 -0.443383
2010-11-10 08:00:24 51°14.58 2°54.886 17.4641 0.03042 0.175473 -0.443383
2010-11-10 08:01:23 51°14.733 2°54.681 17.4443 0.030316 0.174853 -0.443383
2010-11-10 08:02:23 51°14.89 2°54.466 17.4915 0.03042 0.175508 -0.373735
2010-11-10 08:03:23 51°15.028 2°54.23 17.4238 0.03042 0.175553 -0.443383
2010-11-10 08:04:23 51°15.153 2°53.967 17.4427 0.03042 0.175452 -0.443383
2010-11-10 08:05:23 51°15.296 2°53.73 17.4512 0.03042 0.175508 -0.443383
2010-11-10 08:06:22 51°15.437 2°53.507 17.4715 0.03042 0.175514 -0.443383
2010-11-10 08:07:23 51°15.607 2°53.334 17.493 0.030316 0.174978 -0.443383
2010-11-10 08:08:23 51°15.775 2°53.201 17.4973 0.03042 0.175479 -0.443383
2010-11-10 08:09:23 51°15.952 2°53.065 17.5078 0.03042 0.175574 -0.443383
2010-11-10 08:10:23 51°16.127 2°52.925 17.5155 0.03042 0.175609 -0.408559
2010-11-10 08:11:23 51°16.306 2°52.794 17.5277 0.03042 0.175615 -0.443383
2010-11-10 08:12:23 51°16.487 2°52.682 17.5416 0.03042 0.175592 -0.443383
2010-11-10 08:13:23 51°16.669 2°52.596 17.5453 0.030316 0.175034 -0.443383
2010-11-10 08:14:23 51°16.854 2°52.522 17.5613 0.03042 0.175648 -0.443383
2010-11-10 08:15:23 51°17.044 2°52.446 17.5703 0.030316 0.175087 -0.408559
2010-11-10 08:16:23 51°17.232 2°52.402 17.6589 0.030316 0.17506 -0.443383
2010-11-10 08:17:23 51°17.425 2°52.383 17.5851 0.030316 0.175084 -0.408559
2010-11-10 08:18:23 51°17.614 2°52.418 17.6346 0.030316 0.175105 -0.408559
2010-11-10 08:19:23 51°17.792 2°52.454 17.6398 0.030316 0.175069 -0.408559
2010-11-10 08:20:23 51°17.972 2°52.486 17.6369 0.03042 0.17566 -0.408559
2010-11-10 08:21:23 51°18.154 2°52.517 17.6499 0.030316 0.175102 -0.408559
2010-11-10 08:22:22 51°18.322 2°52.602 17.6189 0.03042 0.175696 -0.443383
2010-11-10 08:23:23 51°18.432 2°52.824 17.632 0.030316 0.175117 -0.373735
2010-11-10 08:24:23 51°18.523 2°53.069 17.6601 0.03042 0.175755 -0.443383
2010-11-10 08:25:23 51°18.613 2°53.312 17.6247 0.03042 0.175755 -0.443383
2010-11-10 08:26:23 51°18.697 2°53.557 17.6363 0.030316 0.175173 -0.443383
2010-11-10 08:27:23 51°18.777 2°53.806 17.6509 0.030316 0.175185 -0.408559
2010-11-10 08:28:23 51°18.859 2°54.053 17.6672 0.030316 0.175191 -0.408559
2010-11-10 08:29:23 51°18.94 2°54.297 17.6812 0.030316 0.175227 -0.408559
2010-11-10 08:30:23 51°19.022 2°54.542 17.6452 0.030316 0.175238 -0.443383
2010-11-10 08:31:23 51°19.101 2°54.791 17.6954 0.030316 0.175238 -0.443383
2010-11-10 08:32:23 51°19.186 2°55.038 17.6969 0.030316 0.175244 -0.408559
2010-11-10 08:33:23 51°19.268 2°55.282 17.6763 0.030316 0.175191 -0.408559
2010-11-10 08:34:22 51°19.35 2°55.521 17.6846 0.030316 0.175286 -0.408559
2010-11-10 08:35:22 51°19.428 2°55.773 17.6899 0.030316 0.175319 -0.478207
2010-11-10 08:36:22 51°19.489 2°56.04 17.6635 0.030316 0.175313 -0.443383
2010-11-10 08:37:22 51°19.551 2°56.309 17.6964 0.030316 0.175357 -0.408559
2010-11-10 08:38:23 51°19.615 2°56.576 17.698 0.030316 0.175384 -0.443383
2010-11-10 08:39:22 51°19.679 2°56.832 17.7003 0.030316 0.175375 -0.443383
2010-11-10 08:40:22 51°19.742 2°57.097 17.7086 0.030212 0.174798 -0.443383
2010-11-10 08:41:22 51°19.809 2°57.355 17.6892 0.030316 0.175456 -0.408559
2010-11-10 08:42:22 51°19.875 2°57.614 17.6726 0.030212 0.174831 -0.443383
2010-11-10 08:43:22 51°19.935 2°57.876 17.7178 0.030212 0.174867 -0.408559
2010-11-10 08:44:22 51°20 2°58.132 17.7026 0.030316 0.175503 -0.443383
2010-11-10 08:45:22 51°20.061 2°58.398 17.6861 0.030316 0.175527 -0.443383
2010-11-10 08:46:22 51°20.123 2°58.66 17.702 0.030212 0.174926 -0.443383
2010-11-10 08:47:23 51°20.185 2°58.93 17.7198 0.030212 0.174926 -0.408559
2010-11-10 08:48:22 51°20.25 2°59.187 17.7368 0.030212 0.174962 -0.443383
2010-11-10 08:49:22 51°20.317 2°59.449 17.7551 0.030212 0.174982 -0.408559
2010-11-10 08:50:22 51°20.381 2°59.709 17.7395 0.030212 0.174985 -0.408559
2010-11-10 08:51:22 51°20.45 2°59.967 17.7311 0.030212 0.175057 -0.443383
2010-11-10 08:52:22 51°20.518 3°0.222 17.7302 0.030212 0.175054 -0.443383
2010-11-10 08:53:22 51°20.583 3°0.485 17.7549 0.030212 0.175072 -0.408559
2010-11-10 08:54:22 51°20.647 3°0.747 17.7548 0.030212 0.175096 -0.408559
2010-11-10 08:55:22 51°20.709 3°1.006 17.7568 0.030108 0.174497 -0.443383
2010-11-10 08:56:23 51°20.782 3°1.259 17.7541 0.030212 0.175122 -0.443383
2010-11-10 08:57:23 51°20.843 3°1.519 17.7436 0.030212 0.175131 -0.443383
2010-11-10 08:58:22 51°20.902 3°1.778 17.7619 0.030212 0.175167 -0.408559
2010-11-10 08:59:23 51°20.968 3°2.043 17.7816 0.030108 0.174574 -0.408559
2010-11-10 09:00:22 51°21.029 3°2.307 17.7788 0.030212 0.1752 -0.408559
2010-11-10 09:01:22 51°21.096 3°2.574 17.8087 0.030108 0.174604 -0.408559
2010-11-10 09:02:22 51°21.165 3°2.839 17.8242 0.030108 0.17461 -0.408559
2010-11-10 09:03:22 51°21.236 3°3.106 17.8293 0.030108 0.17461 -0.443383
2010-11-10 09:04:22 51°21.304 3°3.374 17.8116 0.030108 0.174622 -0.408559
2010-11-10 09:05:23 51°21.373 3°3.647 17.8344 0.030108 0.174672 -0.443383
2010-11-10 09:06:23 51°21.435 3°3.919 17.8498 0.030108 0.174666 -0.408559
2010-11-10 09:07:22 51°21.493 3°4.191 17.8579 0.030108 0.174687 -0.443383
2010-11-10 09:08:23 51°21.555 3°4.472 17.8615 0.030108 0.174693 -0.443383
2010-11-10 09:09:22 51°21.613 3°4.744 17.8693 0.030108 0.174705 -0.443383
2010-11-10 09:10:22 51°21.675 3°5.022 17.8859 0.030108 0.174711 -0.408559
2010-11-10 09:11:22 51°21.732 3°5.296 17.8813 0.030108 0.174708 -0.443383
2010-11-10 09:12:22 51°21.787 3°5.568 17.8834 0.030108 0.174729 -0.443383
2010-11-10 09:13:22 51°21.839 3°5.838 17.9029 0.030108 0.174744 -0.443383
2010-11-10 09:14:23 51°21.896 3°6.111 17.9119 0.030108 0.174767 -0.408559
2010-11-10 09:15:23 51°21.952 3°6.379 17.9127 0.030108 0.1748 -0.408559
2010-11-10 09:16:22 51°22.011 3°6.645 17.9285 0.030108 0.174773 -0.443383
2010-11-10 09:17:23 51°22.068 3°6.919 17.9361 0.030108 0.1748 -0.443383
2010-11-10 09:18:22 51°22.094 3°7.199 17.9444 0.030108 0.174812 -0.443383
2010-11-10 09:19:22 51°22.107 3°7.494 17.9506 0.030108 0.174827 -0.408559
2010-11-10 09:20:22 51°22.118 3°7.782 17.9606 0.030004 0.174233 -0.443383
2010-11-10 09:21:22 51°22.131 3°8.07 17.9701 0.030004 0.174239 -0.408559
2010-11-10 09:22:22 51°22.154 3°8.358 17.9722 0.030108 0.174869 -0.408559
2010-11-10 09:23:23 51°22.173 3°8.657 17.9817 0.030108 0.174878 -0.443383
2010-11-10 09:24:22 51°22.2 3°8.937 17.9911 0.030108 0.174899 -0.408559
2010-11-10 09:25:22 51°22.23 3°9.216 17.9977 0.030108 0.174916 -0.443383
2010-11-10 09:26:23 51°22.259 3°9.498 18.0061 0.030108 0.174949 -0.443383
2010-11-10 09:27:22 51°22.285 3°9.773 18.0164 0.030108 0.174925 -0.443383
2010-11-10 09:28:22 51°22.307 3°10.054 18.0257 0.030108 0.174937 -0.408559
2010-11-10 09:29:22 51°22.328 3°10.304 18.0332 0.030108 0.174934 -0.443383
2010-11-10 09:30:23 51°22.339 3°10.487 18.0398 0.030004 0.174346 -0.443383
2010-11-10 09:31:22 51°22.349 3°10.652 18.0499 0.030108 0.174967 -0.443383
2010-11-10 09:32:22 51°22.376 3°10.807 18.0683 0.030108 0.174982 -0.443383
2010-11-10 09:33:23 51°22.425 3°10.98 18.0846 0.030108 0.174973 -0.443383
2010-11-10 09:34:22 51°22.457 3°11.136 18.0959 0.030004 0.174376 -0.443383
2010-11-10 09:35:22 51°22.465 3°11.206 18.1163 0.030108 0.175012 -0.443383
2010-11-10 09:36:22 51°22.459 3°11.224 18.1222 0.030004 0.174405 -0.443383
2010-11-10 09:37:22 51°22.448 3°11.219 18.141 0.030108 0.175024 -0.408559
2010-11-10 09:38:22 51°22.435 3°11.205 18.1612 0.030004 0.174429 -0.408559
2010-11-10 09:39:22 51°22.422 3°11.19 18.1668 0.030004 0.174435 -0.443383
2010-11-10 09:40:22 51°22.407 3°11.173 18.1842 0.030004 0.17445 -0.443383
2010-11-10 09:41:23 51°22.39 3°11.158 18.2016 0.030004 0.174465 -0.443383
2010-11-10 09:42:22 51°22.374 3°11.143 18.2086 0.030004 0.174459 -0.408559
2010-11-10 09:43:22 51°22.367 3°11.166 18.2297 0.030004 0.174468 -0.478207
2010-11-10 09:44:23 51°22.378 3°11.218 18.234 0.030004 0.174483 -0.443383
2010-11-10 09:45:22 51°22.376 3°11.231 18.2798 0.030004 0.174492 -0.408559
2010-11-10 09:46:22 51°22.366 3°11.222 18.2943 0.030004 0.174486 -0.443383
2010-11-10 09:47:22 51°22.35 3°11.2 18.3016 0.030004 0.174489 -0.478207
2010-11-10 09:48:22 51°22.332 3°11.178 18.3282 0.030004 0.17451 -0.408559
2010-11-10 09:49:22 51°22.315 3°11.157 18.3643 0.030004 0.174513 -0.443383
2010-11-10 09:50:22 51°22.315 3°11.19 18.3609 0.030004 0.174519 -0.408559
2010-11-10 09:51:23 51°22.353 3°11.296 18.3692 0.030004 0.174516 -0.408559
2010-11-10 09:52:22 51°22.406 3°11.466 18.3227 0.030004 0.174516 -0.443383
2010-11-10 09:53:22 51°22.494 3°11.716 18.3622 0.030004 0.174516 -0.408559
2010-11-10 09:54:22 51°22.614 3°11.957 18.4011 0.030004 0.174522 -0.443383
2010-11-10 09:55:22 51°22.747 3°12.176 18.4183 0.030004 0.17454 -0.443383
2010-11-10 09:56:22 51°22.876 3°12.4 18.4019 0.030004 0.174537 -0.408559
2010-11-10 09:57:22 51°23.004 3°12.625 18.4055 0.030004 0.174549 -0.443383
2010-11-10 09:58:23 51°23.133 3°12.847 18.452 0.030004 0.174546 -0.443383
2010-11-10 09:59:22 51°23.256 3°13.064 18.4492 0.030004 0.174552 -0.408559
2010-11-10 10:00:22 51°23.382 3°13.285 18.4992 0.030004 0.174555 -0.408559
2010-11-10 10:01:22 51°23.508 3°13.514 18.5248 0.030004 0.17456 -0.443383
2010-11-10 10:02:23 51°23.63 3°13.748 18.5349 0.030004 0.174528 -0.443383
2010-11-10 10:03:22 51°23.757 3°13.96 18.5192 0.030004 0.174528 -0.443383
2010-11-10 10:04:22 51°23.905 3°14.147 18.5481 0.030004 0.174519 -0.478207
2010-11-10 10:05:23 51°24.083 3°14.256 18.5621 0.030004 0.174528 -0.408559
2010-11-10 10:06:22 51°24.271 3°14.283 18.588 0.0299 0.173956 -0.443383
2010-11-10 10:07:22 51°24.342 3°14.339 18.6163 0.030004 0.174563 -0.443383
2010-11-10 10:08:22 51°24.29 3°14.376 18.6393 0.030004 0.174578 -0.408559
2010-11-10 10:09:23 51°24.207 3°14.316 18.6583 0.030004 0.174569 -0.443383
2010-11-10 10:10:23 51°24.146 3°14.233 18.6742 0.030004 0.174569 -0.443383
2010-11-10 10:11:23 51°24.108 3°14.143 18.6762 0.030004 0.174593 -0.408559
2010-11-10 10:12:22 51°24.086 3°14.059 18.7033 0.030004 0.174599 -0.478207
2010-11-10 10:13:22 51°24.072 3°13.977 18.7016 0.030004 0.17459 -0.443383
2010-11-10 10:14:22 51°24.066 3°13.883 18.7156 0.030004 0.17459 -0.443383
2010-11-10 10:15:23 51°24.065 3°13.789 18.7432 0.030004 0.174596 -0.443383
2010-11-10 10:16:23 51°24.069 3°13.701 18.744 0.030004 0.174596 -0.443383
2010-11-10 10:17:22 51°24.068 3°13.613 18.7789 0.030004 0.174593 -0.443383
2010-11-10 10:18:23 51°24.072 3°13.512 18.7862 0.030004 0.174605 -0.408559
2010-11-10 10:19:22 51°24.076 3°13.415 18.8201 0.030004 0.174608 -0.408559
2010-11-10 10:20:22 51°24.071 3°13.317 18.8297 0.030108 0.175246 -0.443383
2010-11-10 10:21:22 51°24.061 3°13.216 18.8474 0.030004 0.174617 -0.443383
2010-11-10 10:22:22 51°24.052 3°13.102 18.863 0.030004 0.174602 -0.443383
2010-11-10 10:23:23 51°24.042 3°12.987 18.8792 0.030004 0.174623 -0.408559
2010-11-10 10:24:23 51°24.031 3°12.89 18.887 0.030004 0.174611 -0.443383
2010-11-10 10:25:22 51°24.021 3°12.802 18.9072 0.030004 0.174608 -0.443383
2010-11-10 10:26:22 51°24.01 3°12.714 18.916 0.030004 0.17462 -0.443383
2010-11-10 10:27:22 51°23.998 3°12.626 18.9387 0.030004 0.174635 -0.443383
2010-11-10 10:28:23 51°23.983 3°12.541 18.9416 0.030004 0.174623 -0.478207
2010-11-10 10:29:23 51°23.97 3°12.456 18.9649 0.030004 0.174626 -0.443383
2010-11-10 10:30:23 51°23.958 3°12.37 18.9871 0.030004 0.174632 -0.478207
2010-11-10 10:31:23 51°23.943 3°12.283 18.9994 0.030004 0.174638 -0.443383
2010-11-10 10:32:22 51°23.929 3°12.198 19.001 0.030004 0.174647 -0.443383
2010-11-10 10:33:22 51°23.917 3°12.108 19.0121 0.030004 0.174644 -0.443383
2010-11-10 10:34:23 51°23.906 3°12.017 19.0422 0.030004 0.174662 -0.443383
2010-11-10 10:35:23 51°23.892 3°11.926 19.057 0.030004 0.174647 -0.478207
2010-11-10 10:36:22 51°23.878 3°11.837 19.061 0.030004 0.174665 -0.443383
2010-11-10 10:37:22 51°23.859 3°11.749 19.0773 0.030004 0.174686 -0.443383
2010-11-10 10:38:23 51°23.835 3°11.661 19.1056 0.030004 0.174668 -0.443383
2010-11-10 10:39:22 51°23.812 3°11.575 19.1151 0.030004 0.174656 -0.478207
2010-11-10 10:40:22 51°23.788 3°11.486 19.1275 0.030004 0.174662 -0.443383
2010-11-10 10:41:22 51°23.768 3°11.394 19.1345 0.030004 0.174677 -0.443383
2010-11-10 10:42:23 51°23.749 3°11.3 19.1708 0.030004 0.17468 -0.443383
2010-11-10 10:43:22 51°23.725 3°11.21 19.1812 0.030004 0.174671 -0.478207
2010-11-10 10:44:22 51°23.704 3°11.119 19.1924 0.030004 0.174671 -0.408559
2010-11-10 10:45:22 51°23.689 3°11.034 19.2054 0.030004 0.174683 -0.443383
2010-11-10 10:46:22 51°23.673 3°10.952 19.2232 0.030004 0.174704 -0.443383
2010-11-10 10:47:23 51°23.66 3°10.867 19.2165 0.030004 0.174686 -0.443383
2010-11-10 10:48:22 51°23.652 3°10.782 19.2311 0.030004 0.174689 -0.443383
2010-11-10 10:49:23 51°23.642 3°10.709 19.2588 0.030004 0.174689 -0.408559
2010-11-10 10:50:22 51°23.629 3°10.658 19.2489 0.030004 0.174677 -0.443383
2010-11-10 10:51:22 51°23.611 3°10.617 19.2605 0.030004 0.174674 -0.443383
2010-11-10 10:52:22 51°23.59 3°10.582 19.2981 0.030004 0.174671 -0.443383
2010-11-10 10:53:22 51°23.57 3°10.544 19.3054 0.030004 0.174659 -0.408559
2010-11-10 10:54:22 51°23.558 3°10.485 19.3066 0.030004 0.174668 -0.478207
2010-11-10 10:55:23 51°23.568 3°10.361 19.3333 0.030004 0.174686 -0.443383
2010-11-10 10:56:22 51°23.623 3°10.175 19.3387 0.030004 0.174692 -0.408559
2010-11-10 10:57:23 51°23.741 3°9.987 19.3453 0.030004 0.174698 -0.443383
2010-11-10 10:58:22 51°23.878 3°9.76 19.3631 0.030004 0.174632 -0.443383
2010-11-10 10:59:23 51°23.981 3°9.455 19.3777 0.030108 0.175324 -0.408559
2010-11-10 11:00:23 51°24.077 3°9.15 19.3844 0.030108 0.175306 -0.478207
2010-11-10 11:01:23 51°24.174 3°8.846 19.3449 0.030004 0.174641 -0.443383
2010-11-10 11:02:22 51°24.226 3°8.673 19.3536 0.030108 0.175321 -0.478207
2010-11-10 11:03:22 51°24.235 3°8.587 19.3578 0.030004 0.174677 -0.478207
2010-11-10 11:04:23 51°24.224 3°8.545 19.3785 0.030004 0.174698 -0.513031
2010-11-10 11:05:22 51°24.212 3°8.511 19.3885 0.030004 0.174674 -0.478207
2010-11-10 11:06:22 51°24.204 3°8.471 19.3957 0.030004 0.174671 -0.478207
2010-11-10 11:07:23 51°24.197 3°8.429 19.4078 0.030004 0.174707 -0.513031
2010-11-10 11:08:22 51°24.192 3°8.388 19.4153 0.030004 0.174668 -0.513031
2010-11-10 11:09:23 51°24.192 3°8.344 19.4312 0.030108 0.175276 -0.478207
2010-11-10 11:10:22 51°24.19 3°8.303 19.4449 0.030004 0.174668 -0.443383
2010-11-10 11:11:23 51°24.188 3°8.262 19.4535 0.030004 0.174671 -0.443383
2010-11-10 11:12:22 51°24.184 3°8.229 19.4653 0.030108 0.175273 -0.478207
2010-11-10 11:13:23 51°24.189 3°8.188 19.4757 0.030004 0.174665 -0.443383
2010-11-10 11:14:22 51°24.211 3°8.149 19.4859 0.030004 0.174659 -0.478207
2010-11-10 11:15:22 51°24.245 3°8.113 19.4973 0.030004 0.17465 -0.443383
2010-11-10 11:16:23 51°24.273 3°8.085 19.5067 0.030004 0.17465 -0.443383
2010-11-10 11:17:22 51°24.282 3°8.064 19.5166 0.030004 0.174653 -0.443383
2010-11-10 11:18:23 51°24.281 3°8.039 19.5253 0.030108 0.175264 -0.478207
2010-11-10 11:19:22 51°24.271 3°8.009 19.5341 0.030004 0.174656 -0.443383
2010-11-10 11:20:22 51°24.268 3°7.97 19.5482 0.030108 0.175264 -0.443383
2010-11-10 11:21:22 51°24.281 3°7.933 19.5554 0.030004 0.174662 -0.478207
2010-11-10 11:22:23 51°24.298 3°7.908 19.5672 0.030004 0.174644 -0.443383
2010-11-10 11:23:22 51°24.315 3°7.893 19.5756 0.030108 0.175255 -0.478207
2010-11-10 11:24:22 51°24.337 3°7.867 19.5873 0.030004 0.174656 -0.478207
2010-11-10 11:25:22 51°24.358 3°7.839 19.5935 0.030004 0.174656 -0.408559
2010-11-10 11:26:22 51°24.383 3°7.81 19.6067 0.030004 0.174644 -0.478207
2010-11-10 11:27:23 51°24.412 3°7.778 19.614 0.030108 0.175255 -0.478207
2010-11-10 11:28:22 51°24.435 3°7.743 19.6259 0.030108 0.175264 -0.478207
2010-11-10 11:29:22 51°24.453 3°7.709 19.632 0.030004 0.17465 -0.478207
2010-11-10 11:30:22 51°24.465 3°7.674 19.6415 0.030004 0.174647 -0.443383
2010-11-10 11:31:22 51°24.476 3°7.641 19.6532 0.030004 0.174647 -0.478207
2010-11-10 11:32:22 51°24.494 3°7.605 19.655 0.030004 0.174638 -0.478207
2010-11-10 11:33:23 51°24.512 3°7.569 19.6696 0.030004 0.174644 -0.478207
2010-11-10 11:34:23 51°24.53 3°7.535 19.6825 0.030004 0.174647 -0.478207
2010-11-10 11:35:22 51°24.54 3°7.505 19.6938 0.030108 0.175255 -0.443383
2010-11-10 11:36:22 51°24.549 3°7.472 19.7002 0.030004 0.174659 -0.478207
2010-11-10 11:37:22 51°24.561 3°7.447 19.7026 0.030004 0.174644 -0.478207
2010-11-10 11:38:23 51°24.57 3°7.427 19.7155 0.030004 0.174635 -0.443383
2010-11-10 11:39:22 51°24.609 3°7.389 19.7231 0.030004 0.174638 -0.478207
2010-11-10 11:40:23 51°24.71 3°7.325 19.7207 0.030004 0.174629 -0.443383
2010-11-10 11:41:22 51°24.812 3°7.288 19.7313 0.030004 0.17462 -0.478207
2010-11-10 11:42:22 51°24.929 3°7.242 19.7426 0.030004 0.174596 -0.478207
2010-11-10 11:43:22 51°25.044 3°7.224 19.7455 0.030108 0.17518 -0.443383
2010-11-10 11:44:22 51°25.154 3°7.266 19.7545 0.030004 0.174614 -0.478207
2010-11-10 11:45:22 51°25.263 3°7.33 19.7655 0.030108 0.175222 -0.478207
2010-11-10 11:46:22 51°25.372 3°7.393 19.7689 0.030004 0.174605 -0.478207
2010-11-10 11:47:23 51°25.486 3°7.477 19.7766 0.030004 0.174587 -0.513031
2010-11-10 11:48:22 51°25.585 3°7.603 19.7803 0.030004 0.174546 -0.443383
2010-11-10 11:49:23 51°25.702 3°7.744 19.7807 0.030108 0.175237 -0.478207
2010-11-10 11:50:22 51°25.825 3°7.882 19.7893 0.030108 0.175186 -0.478207
2010-11-10 11:51:23 51°25.951 3°8.022 19.7888 0.030108 0.175105 -0.478207
2010-11-10 11:52:23 51°26.061 3°8.204 19.7955 0.030108 0.175186 -0.478207
2010-11-10 11:53:22 51°26.15 3°8.413 19.8011 0.030108 0.17515 -0.478207
2010-11-10 11:54:23 51°26.23 3°8.591 19.8056 0.030108 0.175174 -0.443383
2010-11-10 11:55:22 51°26.259 3°8.688 19.8125 0.030108 0.175174 -0.443383
2010-11-10 11:56:22 51°26.269 3°8.762 19.8171 0.030108 0.17518 -0.478207
2010-11-10 11:57:22 51°26.274 3°8.823 19.8218 0.030108 0.175192 -0.478207
2010-11-10 11:58:22 51°26.278 3°8.886 19.8253 0.030108 0.175192 -0.478207
2010-11-10 11:59:22 51°26.348 3°9.041 19.8276 0.030108 0.175201 -0.478207
2010-11-10 12:00:22 51°26.469 3°9.265 19.8336 0.030108 0.175234 -0.478207
2010-11-10 12:01:22 51°26.595 3°9.501 19.8349 0.030004 0.174534 -0.478207
2010-11-10 12:02:22 51°26.7 3°9.76 19.8385 0.030108 0.175213 -0.478207
2010-11-10 12:03:22 51°26.775 3°10.058 19.842 0.030108 0.175255 -0.478207
2010-11-10 12:04:22 51°26.844 3°10.359 19.846 0.030108 0.175255 -0.443383
2010-11-10 12:05:22 51°26.919 3°10.654 19.849 0.030108 0.175264 -0.478207
2010-11-10 12:06:22 51°26.991 3°10.955 19.8517 0.030108 0.175291 -0.513031
2010-11-10 12:07:22 51°27.069 3°11.254 19.8551 0.030108 0.175315 -0.478207
2010-11-10 12:08:22 51°27.152 3°11.547 19.8585 0.030004 0.174719 -0.443383
2010-11-10 12:09:22 51°27.231 3°11.845 19.8573 0.030108 0.17536 -0.443383
2010-11-10 12:10:23 51°27.311 3°12.149 19.8633 0.030004 0.174752 -0.478207
2010-11-10 12:11:25 51°27.338 3°12.488 19.8618 0.030004 0.174788 -0.443383
2010-11-10 12:12:24 51°27.337 3°12.826 19.8738 0.030004 0.174791 -0.478207
2010-11-10 12:13:23 51°27.321 3°13.165 19.873 0.030004 0.174815 -0.443383
2010-11-10 12:14:22 51°27.316 3°13.498 19.874 0.030108 0.175444 -0.478207
2010-11-10 12:15:22 51°27.308 3°13.836 19.8914 0.030004 0.174833 -0.443383
2010-11-10 12:16:22 51°27.282 3°14.117 19.8818 0.030004 0.174878 -0.443383
2010-11-10 12:17:22 51°27.272 3°14.238 19.8763 0.030004 0.174902 -0.443383
2010-11-10 12:18:22 51°27.247 3°14.28 19.8925 0.030004 0.17492 -0.478207
2010-11-10 12:19:22 51°27.218 3°14.31 19.9076 0.030004 0.174938 -0.478207
2010-11-10 12:20:22 51°27.188 3°14.333 19.9041 0.030004 0.174962 -0.478207
2010-11-10 12:21:23 51°27.154 3°14.354 19.9019 0.030004 0.174962 -0.443383
2010-11-10 12:22:22 51°27.119 3°14.37 19.9014 0.030004 0.174995 -0.443383
2010-11-10 12:23:22 51°27.083 3°14.385 19.9184 0.030004 0.175007 -0.478207
2010-11-10 12:24:22 51°27.048 3°14.401 19.9203 0.030004 0.175019 -0.443383
2010-11-10 12:25:22 51°27.014 3°14.418 19.9316 0.0299 0.174419 -0.478207
2010-11-10 12:26:22 51°26.979 3°14.433 19.9368 0.030004 0.17504 -0.478207
2010-11-10 12:27:22 51°26.949 3°14.463 19.9449 0.0299 0.174458 -0.478207
2010-11-10 12:28:22 51°26.953 3°14.511 19.9413 0.030004 0.175061 -0.478207
2010-11-10 12:29:22 51°26.998 3°14.494 19.9569 0.030004 0.175058 -0.478207
2010-11-10 12:30:22 51°27.112 3°14.409 19.9616 0.030004 0.1751 -0.478207
2010-11-10 12:31:22 51°27.249 3°14.298 19.9784 0.0299 0.174536 -0.478207
2010-11-10 12:32:22 51°27.352 3°14.07 19.9696 0.0299 0.17456 -0.513031
2010-11-10 12:33:22 51°27.448 3°13.839 19.9869 0.0299 0.174587 -0.478207
2010-11-10 12:34:23 51°27.549 3°13.598 19.989 0.030004 0.175208 -0.478207
2010-11-10 12:35:22 51°27.647 3°13.37 19.9918 0.0299 0.174704 -0.443383
2010-11-10 12:36:22 51°27.747 3°13.138 19.9948 0.0299 0.174668 -0.443383
2010-11-10 12:37:22 51°27.848 3°12.904 20.0029 0.0299 0.174707 -0.478207
2010-11-10 12:38:22 51°27.948 3°12.672 20.014 0.0299 0.174722 -0.478207
2010-11-10 12:39:22 51°28.046 3°12.44 20.0306 0.0299 0.174824 -0.478207
2010-11-10 12:40:22 51°28.141 3°12.207 20.0278 0.0299 0.174878 -0.478207
2010-11-10 12:41:22 51°28.244 3°11.973 20.0347 0.030004 0.175519 -0.478207
2010-11-10 12:42:22 51°28.348 3°11.735 20.0404 0.0299 0.174957 -0.478207
2010-11-10 12:43:22 51°28.452 3°11.499 20.047 0.029796 0.174376 -0.478207
2010-11-10 12:44:22 51°28.559 3°11.262 20.0519 0.0299 0.175062 -0.478207
2010-11-10 12:45:22 51°28.664 3°11.024 20.0623 0.0299 0.175038 -0.478207
2010-11-10 12:46:22 51°28.771 3°10.787 20.0732 0.0299 0.175156 -0.478207
2010-11-10 12:47:23 51°28.875 3°10.548 20.0774 0.0299 0.175144 -0.478207
2010-11-10 12:48:22 51°28.975 3°10.316 20.0884 0.029796 0.174574 -0.478207
2010-11-10 12:49:22 51°29.076 3°10.081 20.0902 0.0299 0.175322 -0.478207
2010-11-10 12:50:23 51°29.176 3°9.852 20.105 0.0299 0.175298 -0.443383
2010-11-10 12:51:22 51°29.273 3°9.622 20.0977 0.0299 0.175322 -0.478207
2010-11-10 12:52:22 51°29.382 3°9.382 20.1137 0.029796 0.174813 -0.478207
2010-11-10 12:53:22 51°29.488 3°9.143 20.1178 0.029796 0.174855 -0.478207
2010-11-10 12:54:22 51°29.594 3°8.903 20.1286 0.029796 0.174973 -0.443383
2010-11-10 12:55:22 51°29.704 3°8.659 20.1361 0.029796 0.175031 -0.478207
2010-11-10 12:56:22 51°29.814 3°8.424 20.1315 0.029796 0.175013 -0.443383
2010-11-10 12:57:22 51°29.937 3°8.205 20.1494 0.029796 0.175092 -0.478207
2010-11-10 12:58:22 51°30.059 3°7.991 20.1462 0.029796 0.175216 -0.478207
2010-11-10 12:59:22 51°30.181 3°7.776 20.1539 0.029796 0.175207 -0.478207
2010-11-10 13:00:22 51°30.31 3°7.55 20.1529 0.029692 0.174754 -0.443383
2010-11-10 13:01:22 51°30.439 3°7.324 20.1667 0.029692 0.174851 -0.478207
2010-11-10 13:02:22 51°30.573 3°7.093 20.1744 0.029692 0.174891 -0.513031
2010-11-10 13:03:23 51°30.7 3°6.87 20.1699 0.029692 0.174924 -0.443383
2010-11-10 13:04:22 51°30.823 3°6.646 20.1816 0.029588 0.174339 -0.478207
2010-11-10 13:05:23 51°30.955 3°6.409 20.1654 0.029692 0.175083 -0.513031
2010-11-10 13:06:23 51°31.084 3°6.182 20.1859 0.029692 0.175168 -0.513031
2010-11-10 13:07:22 51°31.21 3°5.956 20.1982 0.029692 0.175147 -0.478207
2010-11-10 13:08:22 51°31.341 3°5.726 20.2113 0.029692 0.175272 -0.478207
2010-11-10 13:09:23 51°31.478 3°5.494 20.212 0.029692 0.175355 -0.443383
2010-11-10 13:10:22 51°31.605 3°5.278 20.2213 0.029588 0.174796 -0.478207
2010-11-10 13:11:22 51°31.731 3°5.058 20.2389 0.029588 0.174805 -0.478207
2010-11-10 13:12:23 51°31.857 3°4.851 20.2328 0.029588 0.174903 -0.513031
2010-11-10 13:13:22 51°31.981 3°4.644 20.2499 0.029588 0.174857 -0.513031
2010-11-10 13:14:22 51°32.108 3°4.433 20.248 0.029588 0.174854 -0.478207
2010-11-10 13:15:22 51°32.238 3°4.223 20.2572 0.029588 0.175083 -0.443383
2010-11-10 13:16:24 51°32.369 3°4.013 20.2729 0.029588 0.175317 -0.478207
2010-11-10 13:17:23 51°32.501 3°3.81 20.2705 0.029588 0.175105 -0.478207
2010-11-10 13:18:23 51°32.633 3°3.6 20.2821 0.029588 0.175221 -0.443383
2010-11-10 13:19:22 51°32.755 3°3.397 20.2589 0.029588 0.175218 -0.478207
2010-11-10 13:20:23 51°32.885 3°3.182 20.3098 0.029484 0.174698 -0.443383
2010-11-10 13:21:24 51°33.006 3°2.976 20.275 0.029588 0.175344 -0.443383
2010-11-10 13:22:24 51°33.127 3°2.775 20.2825 0.029588 0.175446 -0.478207
2010-11-10 13:23:24 51°33.252 3°2.571 20.2707 0.029484 0.174842 -0.513031
2010-11-10 13:24:24 51°33.373 3°2.371 20.3136 0.029588 0.175591 -0.478207
2010-11-10 13:25:24 51°33.506 3°2.165 20.3086 0.029484 0.17498 -0.478207
2010-11-10 13:26:22 51°33.633 3°1.956 20.3229 0.029484 0.17502 -0.513031
2010-11-10 13:27:22 51°33.763 3°1.747 20.3366 0.029484 0.175082 -0.478207
2010-11-10 13:28:23 51°33.899 3°1.537 20.335 0.029484 0.175227 -0.478207
2010-11-10 13:29:23 51°34.021 3°1.335 20.3513 0.029484 0.175282 -0.478207
2010-11-10 13:30:22 51°34.145 3°1.13 20.3479 0.029484 0.175291 -0.478207
2010-11-10 13:31:22 51°34.256 3°0.909 20.3225 0.029484 0.175356 -0.478207
2010-11-10 13:32:22 51°34.365 3°0.676 20.3643 0.02938 0.174772 -0.478207
2010-11-10 13:33:23 51°34.476 3°0.443 20.368 0.02938 0.17488 -0.443383
2010-11-10 13:34:22 51°34.554 3°0.276 20.3638 0.02938 0.174907 -0.478207
2010-11-10 13:35:22 51°34.589 3°0.268 20.3238 0.02938 0.175071 -0.478207
2010-11-10 13:36:22 51°34.579 3°0.306 20.3299 0.029276 0.174519 -0.513031
2010-11-10 13:37:22 51°34.559 3°0.338 20.3688 0.029276 0.17459 -0.478207
2010-11-10 13:38:22 51°34.538 3°0.371 20.3748 0.029276 0.174646 -0.443383
2010-11-10 13:39:22 51°34.519 3°0.406 20.3807 0.029276 0.174705 -0.478207
2010-11-10 13:40:22 51°34.499 3°0.439 20.3676 0.029276 0.174726 -0.513031
2010-11-10 13:41:22 51°34.481 3°0.474 20.3823 0.029276 0.174764 -0.443383
2010-11-10 13:42:22 51°34.462 3°0.508 20.3528 0.029276 0.174829 -0.443383
2010-11-10 13:43:22 51°34.441 3°0.54 20.3717 0.029172 0.174242 -0.478207
2010-11-10 13:44:22 51°34.42 3°0.57 20.3269 0.029276 0.174909 -0.513031
2010-11-10 13:45:22 51°34.397 3°0.6 20.4253 0.029172 0.174306 -0.478207
2010-11-10 13:46:22 51°34.377 3°0.633 20.311 0.029172 0.174337 -0.478207
2010-11-10 13:47:22 51°34.356 3°0.668 20.338 0.029172 0.174362 -0.443383
2010-11-10 13:48:22 51°34.336 3°0.7 20.3301 0.029172 0.174353 -0.478207
2010-11-10 13:49:22 51°34.316 3°0.738 20.4009 0.029172 0.174421 -0.478207
2010-11-10 13:50:22 51°34.28 3°0.825 20.4222 0.029172 0.174449 -0.478207
2010-11-10 13:51:22 51°34.204 3°0.837 20.4473 0.029172 0.174405 -0.478207
2010-11-10 13:52:22 51°34.137 3°0.68 20.3928 0.029172 0.174433 -0.478207
2010-11-10 13:53:22 51°34.018 3°0.46 18.7005 0.029172 0.174477 -0.478207
2010-11-10 13:54:22 51°33.885 3°0.228 19.0109 0.029172 0.174467 -0.478207
2010-11-10 13:55:22 51°33.761 2°59.981 19.4552 0.029172 0.174511 -0.478207
2010-11-10 13:56:22 51°33.626 2°59.745 19.5004 0.029172 0.174548 -0.478207
2010-11-10 13:57:22 51°33.5 2°59.499 18.8335 0.029172 0.174588 -0.478207
2010-11-10 13:58:22 51°33.38 2°59.251 18.8449 0.029172 0.174613 -0.478207
2010-11-10 13:59:22 51°33.262 2°58.995 18.9901 0.029172 0.174626 -0.478207
2010-11-10 14:00:22 51°33.142 2°58.745 19.1348 0.029172 0.174691 -0.478207
2010-11-10 14:01:22 51°33.018 2°58.499 18.9368 0.029172 0.174678 -0.478207
2010-11-10 14:02:22 51°32.896 2°58.254 19.6205 0.029068 0.174065 -0.478207
2010-11-10 14:03:22 51°32.778 2°58.005 19.5242 0.029068 0.174074 -0.478207
2010-11-10 14:04:22 51°32.663 2°57.754 19.202 0.029068 0.174142 -0.443383
2010-11-10 14:05:22 51°32.555 2°57.5 19.5535 0.029068 0.174158 -0.478207
2010-11-10 14:06:22 51°32.505 2°57.22 19.1056 0.029068 0.174183 -0.478207
2010-11-10 14:07:22 51°32.561 2°56.931 19.4984 0.029068 0.174226 -0.443383
2010-11-10 14:08:23 51°32.66 2°56.679 19.3682 0.029172 0.174924 -0.478207
2010-11-10 14:09:24 51°32.802 2°56.489 19.1868 0.029068 0.174257 -0.478207
2010-11-10 14:10:24 51°32.943 2°56.293 19.5113 0.029068 0.174288 -0.478207
2010-11-10 14:11:25 51°33.079 2°56.096 19.3713 0.029068 0.174425 -0.478207
2010-11-10 14:12:24 51°33.215 2°55.886 19.5048 0.029068 0.174316 -0.443383
2010-11-10 14:13:23 51°33.285 2°55.617 19.3885 0.029068 0.174353 -0.443383
2010-11-10 14:14:22 51°33.28 2°55.329 19.4684 0.029068 0.174335 -0.478207
2010-11-10 14:15:22 51°33.144 2°55.127 19.4232 0.029068 0.174338 -0.513031
2010-11-10 14:16:22 51°32.952 2°55.2 19.544 0.029068 0.174403 -0.443383
2010-11-10 14:17:22 51°32.81 2°55.475 19.4103 0.029068 0.174428 -0.443383
2010-11-10 14:18:22 51°32.648 2°55.729 19.3012 0.029068 0.17445 -0.478207
2010-11-10 14:19:22 51°32.48 2°55.963 19.462 0.029068 0.174456 -0.478207
2010-11-10 14:20:22 51°32.321 2°56.184 19.5075 0.029068 0.174472 -0.478207
2010-11-10 14:21:22 51°32.248 2°56.33 19.4203 0.029068 0.174503 -0.513031
2010-11-10 14:22:22 51°32.223 2°56.436 19.4798 0.029068 0.174531 -0.478207
2010-11-10 14:23:22 51°32.214 2°56.517 19.4372 0.029068 0.174543 -0.443383
2010-11-10 14:24:22 51°32.207 2°56.58 19.5432 0.029068 0.174578 -0.443383
2010-11-10 14:25:22 51°32.201 2°56.625 19.5544 0.028964 0.173953 -0.478207
2010-11-10 14:26:22 51°32.195 2°56.663 19.5497 0.029068 0.174587 -0.478207
2010-11-10 14:27:22 51°32.191 2°56.699 19.5821 0.028964 0.173996 -0.513031
2010-11-10 14:28:22 51°32.187 2°56.736 19.5813 0.028964 0.173999 -0.478207
2010-11-10 14:29:22 51°32.181 2°56.772 19.5718 0.029068 0.174643 -0.478207
2010-11-10 14:30:22 51°32.174 2°56.815 19.5861 0.028964 0.174031 -0.478207
2010-11-10 14:31:22 51°32.151 2°56.916 19.6335 0.029068 0.174678 -0.443383
2010-11-10 14:32:22 51°32.071 2°56.944 19.6336 0.028964 0.174071 -0.478207
2010-11-10 14:33:22 51°31.915 2°56.91 19.6455 0.028964 0.174059 -0.478207
2010-11-10 14:34:22 51°31.736 2°56.799 19.6195 0.028964 0.174059 -0.478207
2010-11-10 14:35:22 51°31.571 2°56.649 19.627 0.028964 0.174049 -0.478207
2010-11-10 14:36:22 51°31.386 2°56.559 19.6434 0.028964 0.17409 -0.478207
2010-11-10 14:37:23 51°31.188 2°56.503 19.5801 0.028964 0.174099 -0.478207
2010-11-10 14:38:22 51°31.002 2°56.412 19.5383 0.028964 0.174118 -0.478207
2010-11-10 14:39:22 51°30.808 2°56.334 19.531 0.028964 0.174118 -0.513031
2010-11-10 14:40:22 51°30.615 2°56.253 19.6103 0.028964 0.174177 -0.443383
2010-11-10 14:41:22 51°30.429 2°56.156 19.6046 0.028964 0.174171 -0.478207
2010-11-10 14:42:22 51°30.245 2°56.061 19.5624 0.028964 0.174186 -0.478207
2010-11-10 14:43:22 51°30.058 2°55.977 19.5871 0.028964 0.174208 -0.478207
2010-11-10 14:44:22 51°29.875 2°55.892 19.5874 0.028964 0.174199 -0.478207
2010-11-10 14:45:22 51°29.689 2°55.813 19.4691 0.028964 0.174258 -0.443383
2010-11-10 14:46:22 51°29.501 2°55.726 19.5688 0.028964 0.174252 -0.513031
2010-11-10 14:47:22 51°29.313 2°55.638 19.5909 0.028964 0.17428 -0.478207
2010-11-10 14:48:22 51°29.135 2°55.527 19.6849 0.028964 0.174289 -0.513031
2010-11-10 14:49:22 51°28.949 2°55.448 19.5146 0.028964 0.174302 -0.443383
2010-11-10 14:50:22 51°28.765 2°55.35 19.4898 0.028964 0.174355 -0.478207
2010-11-10 14:51:22 51°28.581 2°55.24 19.5875 0.028964 0.174358 -0.478207
2010-11-10 14:52:23 51°28.387 2°55.151 19.6582 0.028964 0.174336 -0.478207
2010-11-10 14:53:22 51°28.202 2°55.07 19.5504 0.028964 0.174352 -0.478207
2010-11-10 14:54:22 51°28.019 2°54.963 19.5532 0.028964 0.174433 -0.478207
2010-11-10 14:55:23 51°27.833 2°54.862 19.5482 0.028964 0.174424 -0.443383
2010-11-10 14:56:22 51°27.651 2°54.76 19.5481 0.028964 0.174439 -0.478207
2010-11-10 14:57:22 51°27.461 2°54.669 19.5801 0.028964 0.174455 -0.478207
2010-11-10 14:58:22 51°27.275 2°54.574 19.607 0.028964 0.174461 -0.443383
2010-11-10 14:59:22 51°27.088 2°54.496 19.6314 0.028964 0.174458 -0.478207
2010-11-10 15:00:22 51°26.901 2°54.451 19.5881 0.028964 0.174455 -0.478207
2010-11-10 15:01:22 51°26.714 2°54.395 19.6519 0.028964 0.17448 -0.443383
2010-11-10 15:02:23 51°26.524 2°54.338 19.6584 0.02886 0.173837 -0.478207
2010-11-10 15:03:22 51°26.336 2°54.288 19.6033 0.028964 0.174502 -0.443383
2010-11-10 15:04:22 51°26.148 2°54.226 19.5237 0.028964 0.174521 -0.478207
2010-11-10 15:05:22 51°25.961 2°54.163 19.6484 0.028964 0.174511 -0.478207
2010-11-10 15:06:22 51°25.766 2°54.125 19.6617 0.028964 0.174521 -0.478207
2010-11-10 15:07:22 51°25.583 2°54.045 19.6015 0.02886 0.173925 -0.513031
2010-11-10 15:08:22 51°25.398 2°53.955 19.6172 0.028964 0.174564 -0.478207
2010-11-10 15:09:22 51°25.212 2°53.863 19.6167 0.028964 0.174568 -0.478207
2010-11-10 15:10:22 51°25.025 2°53.781 19.6171 0.028964 0.174577 -0.478207
2010-11-10 15:11:22 51°24.836 2°53.695 19.6374 0.02886 0.173947 -0.513031
2010-11-10 15:12:22 51°24.646 2°53.628 19.6983 0.02886 0.173944 -0.478207
2010-11-10 15:13:22 51°24.453 2°53.573 19.7005 0.02886 0.173959 -0.443383
2010-11-10 15:14:22 51°24.26 2°53.516 19.7274 0.028964 0.17459 -0.478207
2010-11-10 15:15:22 51°24.067 2°53.451 19.6646 0.02886 0.17394 -0.478207
2010-11-10 15:16:22 51°23.879 2°53.355 19.6547 0.02886 0.17399 -0.478207
2010-11-10 15:17:22 51°23.691 2°53.284 19.6772 0.028964 0.174633 -0.443383
2010-11-10 15:18:22 51°23.5 2°53.221 19.6935 0.02886 0.174012 -0.478207
2010-11-10 15:19:22 51°23.311 2°53.169 19.7154 0.028964 0.174643 -0.478207
2010-11-10 15:20:22 51°23.12 2°53.11 19.7091 0.028964 0.174643 -0.478207
2010-11-10 15:21:22 51°22.928 2°53.055 19.6354 0.02886 0.17399 -0.478207
2010-11-10 15:22:22 51°22.738 2°53.005 19.6958 0.028964 0.174646 -0.478207
2010-11-10 15:23:22 51°22.555 2°52.923 19.7038 0.02886 0.174018 -0.478207
2010-11-10 15:24:22 51°22.367 2°52.868 19.6165 0.02886 0.174034 -0.478207
2010-11-10 15:25:22 51°22.178 2°52.83 19.6488 0.028964 0.174693 -0.478207
2010-11-10 15:26:22 51°21.99 2°52.786 19.6391 0.028964 0.174696 -0.443383
2010-11-10 15:27:22 51°21.802 2°52.727 19.6692 0.02886 0.174015 -0.478207
2010-11-10 15:28:22 51°21.613 2°52.673 19.6055 0.02886 0.174059 -0.478207
2010-11-10 15:29:22 51°21.419 2°52.661 19.7488 0.028964 0.174696 -0.478207
2010-11-10 15:30:22 51°21.224 2°52.628 19.6361 0.028964 0.174699 -0.478207
2010-11-10 15:31:22 51°21.04 2°52.544 19.6641 0.028964 0.174715 -0.513031
2010-11-10 15:32:22 51°20.857 2°52.472 19.6543 0.028964 0.174728 -0.478207
2010-11-10 15:33:22 51°20.665 2°52.436 19.731 0.028964 0.174718 -0.478207
2010-11-10 15:34:22 51°20.468 2°52.426 19.7483 0.028964 0.174737 -0.443383
2010-11-10 15:35:22 51°20.27 2°52.428 19.7213 0.02886 0.174103 -0.478207
2010-11-10 15:36:22 51°20.075 2°52.416 19.6965 0.02886 0.174094 -0.478207
2010-11-10 15:37:22 51°19.881 2°52.423 19.7528 0.02886 0.17409 -0.443383
2010-11-10 15:38:22 51°19.688 2°52.402 19.7561 0.028964 0.17475 -0.443383
2010-11-10 15:39:22 51°19.493 2°52.389 -999 -999 -999 -999
2010-11-10 15:40:22 51°19.294 2°52.4 -999 -999 -999 -999
2010-11-10 15:41:22 51°19.103 2°52.364 -999 -999 -999 -999
2010-11-10 15:42:22 51°18.908 2°52.313 -999 -999 -999 -999
2010-11-10 15:43:22 51°18.71 2°52.297 -999 -999 -999 -999
2010-11-10 15:44:22 51°18.513 2°52.33 -999 -999 -999 -999
2010-11-10 15:45:23 51°18.311 2°52.351 -999 -999 -999 -999
2010-11-10 15:46:22 51°18.121 2°52.321 -999 -999 -999 -999
2010-11-10 15:47:22 51°17.937 2°52.253 -999 -999 -999 -999
2010-11-10 15:48:22 51°17.75 2°52.189 -999 -999 -999 -999
2010-11-10 15:49:22 51°17.558 2°52.146 -999 -999 -999 -999
2010-11-10 15:50:22 51°17.356 2°52.171 -999 -999 -999 -999
2010-11-10 15:51:22 51°17.165 2°52.263 -999 -999 -999 -999
2010-11-10 15:52:22 51°16.976 2°52.4 -999 -999 -999 -999
2010-11-10 15:53:22 51°16.79 2°52.539 -999 -999 -999 -999
2010-11-10 15:54:22 51°16.604 2°52.693 -999 -999 -999 -999
2010-11-10 15:55:22 51°16.425 2°52.869 -999 -999 -999 -999
2010-11-10 15:56:23 51°16.252 2°53.07 -999 -999 -999 -999
2010-11-10 15:57:23 51°16.071 2°53.235 -999 -999 -999 -999
2010-11-10 15:58:22 51°15.888 2°53.388 -999 -999 -999 -999
2010-11-10 15:59:22 51°15.71 2°53.579 -999 -999 -999 -999
2010-11-10 16:00:22 51°15.54 2°53.787 -999 -999 -999 -999
2010-11-10 16:01:22 51°15.367 2°53.994 -999 -999 -999 -999
2010-11-10 16:02:22 51°15.194 2°54.203 -999 -999 -999 -999
2010-11-10 16:03:22 51°15.053 2°54.384 -999 -999 -999 -999
2010-11-10 16:04:22 51°14.929 2°54.566 -999 -999 -999 -999
2010-11-10 16:05:22 51°14.802 2°54.738 -999 -999 -999 -999
2010-11-10 16:06:22 51°14.673 2°54.896 -999 -999 -999 -999
2010-11-10 16:07:23 51°14.518 2°55.042 -999 -999 -999 -999
2010-11-10 16:08:24 51°14.341 2°55.182 -999 -999 -999 -999
2010-11-10 16:09:24 51°14.19 2°55.355 -999 -999 -999 -999
2010-11-10 16:10:25 51°14.062 2°55.452 -999 -999 -999 -999
2010-11-10 16:11:25 51°13.951 2°55.536 -999 -999 -999 -999
2010-11-10 16:12:25 51°13.841 2°55.619 -999 -999 -999 -999
2010-11-10 16:13:25 51°13.756 2°55.721 -999 -999 -999 -999
2010-11-10 16:14:25 51°13.703 2°55.827 -999 -999 -999 -999
2010-11-10 16:15:24 51°13.669 2°55.917 -999 -999 -999 -999